Regional Weather Roundup
Issued by NWS

Home | Current Version | Previous Version | Graphics & Text | Print | Product List | Glossary On
Versions: 1 2 3 4 5 6 7 8 9 10 11 12 13 14 15 16 17 18 19 20 21 22 23 24 25 26 27 28 29 30 31 32 33 34 35 36 37 38 39 40 41 42 43 44 45 46 47 48 49 50
000
ASUS43 KOAX 231210
RWRNE

WEATHER ROUNDUP FOR NEBRASKA
NATIONAL WEATHER SERVICE OMAHA NE
700 AM CDT TUE SEP 23 2014

NOTES: SATELLITE DATA IS BEING USED TO AUGMENT CLOUD COVER ABOVE
       12000 FEET.
       "FAIR" INDICATES FEW OR NO CLOUDS BELOW 12,000 FEET WITH NO
       SIGNIFICANT WEATHER AND/OR OBSTRUCTIONS TO VISIBILITY.

  * THESE STATIONS DO NOT REPORT WEATHER SUCH AS RAIN...SNOW OR FOG.

NEZ001>004-019>022-054>056-231300-
NEBRASKA PANHANDLE

CITY           SKY/WX    TMP DP  RH WIND       PRES   REMARKS
SCOTTSBLUFF    CLEAR     51  47  86 NW3       30.01R
6HR MIN TEMP:  49; 6HR MAX TEMP:  54;

ALLIANCE       PTCLDY    44  43  96 W7        29.97S
6HR MIN TEMP:  43; 6HR MAX TEMP:  54;

CHADRON        MOCLDY    56  51  84 W9        29.94R
6HR MIN TEMP:  50; 6HR MAX TEMP:  60;

KIMBALL        PTCLDY    54  48  82 W10       30.06S
SIDNEY         PTCLDY    56  53  90 SW13      30.04S
6HR MIN TEMP:  55; 6HR MAX TEMP:  61;

$$

NEZ057>060-069>072-079>082-231300-
SOUTHWEST NEBRASKA

CITY           SKY/WX    TMP DP  RH WIND       PRES   REMARKS
NORTH PLATTE   PTCLDY    56  55  97 SE6       30.02F
6HR MIN TEMP:  54; 6HR MAX TEMP:  58;

IMPERIAL       MOCLDY    58  55  90 S12       30.03S
6HR MIN TEMP:  57; 6HR MAX TEMP:  62;

LEXINGTON      MOCLDY    57  55  94 S7        30.05F
MCCOOK         PTCLDY    55  54  96 SE6       30.04F
6HR MIN TEMP:  55; 6HR MAX TEMP:  61; 6HR PCP:  0.04;

OGALLALA       PTCLDY    56  55  96 SW3       30.01S
$$

NEZ005>010-023>029-035>040-094-231300-
NORTH CENTRAL NEBRASKA

CITY           SKY/WX    TMP DP  RH WIND       PRES   REMARKS
VALENTINE      CLOUDY    56  54  93 S13       29.97S
6HR MIN TEMP:  55; 6HR MAX TEMP:  61;

AINSWORTH      CLOUDY    57  55  94 S17G24    29.99S
BROKEN BOW     CLOUDY    57  54  89 S12       30.04F
6HR MIN TEMP:  57; 6HR MAX TEMP:  59;

O`NEILL        RAIN      57  56  98 S15       30.07S
ORD            CLOUDY    56  54  93 SE8       30.06F
6HR MIN TEMP:  55; 6HR MAX TEMP:  58; 6HR PCP:  0.20;

THEDFORD       CLOUDY    59  57  94 S15       30.01S
$$

NEZ041-046>049-061>064-073>077-083>087-231300-
SOUTH CENTRAL NEBRASKA

CITY           SKY/WX    TMP DP  RH WIND       PRES   REMARKS
GRAND ISLAND   CLOUDY    57  54  89 SE8       30.11F
6HR MIN TEMP:  57; 6HR MAX TEMP:  60; 6HR PCP:  0.41;

AURORA         LGT RAIN  56  56  97 SE7       30.13R
HASTINGS       CLOUDY    56  53  90 SE7       30.10S
6HR MIN TEMP:  56; 6HR MAX TEMP:  60; 6HR PCP:  0.30;

HEBRON         RAIN      57  54  87 S7        30.13R
HOLDREGE       CLOUDY    56  54  93 S8        30.07S
KEARNEY *      CLOUDY    55  54  94 SE9       30.08F
YORK           RAIN      57  55  94 S5        30.14R
$$

NEZ011>018-030>034-042>045-231300-
NORTHEAST NEBRASKA

CITY           SKY/WX    TMP DP  RH WIND       PRES   REMARKS
NORFOLK        LGT RAIN  57  55  93 S9        30.13R FOG
6HR MIN TEMP:  57; 6HR MAX TEMP:  62; 6HR PCP:  0.34;

ALBION         RAIN      56  54  93 S13       30.11S
BLAIR          CLOUDY    61  53  73 S10       30.17S
COLUMBUS *     CLOUDY    57  54  88 SW10      30.18R
FREMONT        CLOUDY    62  52  70 SE8       30.16S
TEKAMAH        CLOUDY    59  55  87 SE8       30.16R
6HR MIN TEMP:  57; 6HR MAX TEMP:  59; 6HR PCP: TRACE;

WAYNE          LGT RAIN  57  55  94 S5        30.14S
$$

NEZ050>053-065>068-078-088>093-231300-
SOUTHEAST NEBRASKA

CITY           SKY/WX    TMP DP  RH WIND       PRES   REMARKS
LINCOLN        CLOUDY    60  52  74 S9        30.16S
6HR MIN TEMP:  58; 6HR MAX TEMP:  62;

OMAHA EPPLEY   CLOUDY    61  52  72 S10       30.18R
6HR MIN TEMP:  61; 6HR MAX TEMP:  63;

BEATRICE       CLOUDY    59  53  79 SE12      30.15F
FALLS CITY     CLOUDY    57  53  86 S3        30.21R
6HR MIN TEMP:  54; 6HR MAX TEMP:  58;

NEBRASKA CITY    N/A     57  49  75 S6        30.20R
PLATTSMOUTH    CLOUDY    58  52  81 S8        30.19R
$$

NEZ044-045-051>053-067-231300-
OMAHA AREA

CITY           SKY/WX    TMP DP  RH WIND       PRES   REMARKS
OMAHA EPPLEY   CLOUDY    61  52  72 S10       30.18R
6HR MIN TEMP:  61; 6HR MAX TEMP:  63;

BLAIR          CLOUDY    61  53  73 S10       30.17S
FREMONT        CLOUDY    62  52  70 SE8       30.16S
MILLARD        CLOUDY    60  54  79 SE6       30.18R
OFFUTT AFB     CLOUDY    58  58  99 E6        30.18S
PLATTSMOUTH    CLOUDY    58  52  81 S8        30.19R
WAHOO          FAIR      58  52  79 S6        30.16S
$$



USA.gov is the U.S. government's official web portal to all federal, state and local government web resources and services.